{"data":{"norad_id":58601,"intl_designator":"2023-200N","name":"STARLINK-31074","alt_names":[],"object_type":"PAYLOAD","status":"ACTIVE","operator":null,"country":"US","launch_date":"2023-12-19","launch_site_code":"AFETR","launch_vehicle":null,"mission":null,"orbit_class":"UNKNOWN","rcs_meters":null,"size_class":null,"mass_kg":null,"dimensions":null,"purposes":["comms"],"wikipedia_slug":null,"has_3d_model":false,"image_url":null,"decayed_at":null,"tle_current":{"epoch":"2026-09-19T10:20:45.586752Z","epoch_age_seconds":242098,"freshness":"STALE","line1":"1 58601U 23200N   26262.43108318  .00000757  00000+0  37053-4 0  9993","line2":"2 58601  43.0060 154.4826 0002299 252.3650 107.6950 15.27581029153243","mean_motion":15.27581029,"eccentricity":0.0002299,"inclination_deg":43.006,"raan_deg":154.4826,"arg_perigee_deg":252.365,"mean_anomaly_deg":107.695,"bstar":3.7053e-5,"rev_number":15324,"period_min":94.266685214248,"perigee_km":481.46862887009,"apogee_km":484.62340082031,"semimajor_km":6861.1830148452,"source":"CELESTRAK","updated_at":"2026-09-21T09:00:33.919172Z"}}}